Regional Weather Roundup
Issued by NWS Huntsville, AL

Home | Current Version | Previous Version | Text Only | Print | Product List | Glossary On
Versions: 1 2 3 4 5 6 7 8 9 10 11 12 13 14 15 16 17 18 19 20 21 22 23 24 25 26 27 28 29 30 31 32 33 34 35 36 37 38 39 40 41 42 43 44 45 46 47 48 49 50
000
ASUS44 KHUN 100910
RWRHUN

WEATHER ROUNDUP FOR THE TENNESSEE VALLEY
NATIONAL WEATHER SERVICE HUNTSVILLE AL
300 AM CST SAT DEC 10 2016

ALZ001>004-101000-
NORTHWEST ALABAMA

CITY           SKY/WX    TMP DP  RH WIND       PRES   REMARKS
COURTLAND HCN    N/A     21 N/A N/A CALM        N/A
RUSSELLVILLE     N/A     19 N/A N/A MISG        N/A
SHOALS AIRPORT CLEAR     24  19  81 CALM      30.57S
SHOALS TVA RES   N/A     27 N/A N/A MISG        N/A
$$

ALZ005>007-016-101000-
NORTH CENTRAL ALABAMA

CITY           SKY/WX    TMP DP  RH WIND       PRES   REMARKS
CULLMAN AG STN   N/A     23 N/A N/A CALM        N/A
DECATUR AP     CLEAR     23  21  92 N5        30.56S WCI  17
HUNTSVILLE AP  CLEAR     25  20  81 N5        30.54F WCI  19
MERIDIANVILLE  CLEAR     23  19  86 CALM      30.54S
REDSTONE ARSN  CLEAR     22  18  85 N7        30.54S WCI  14
VINEMONT AP    FAIR      21  17  84 CALM      30.53F
$$

ALZ008>010-101000-
NORTHEAST ALABAMA

CITY           SKY/WX    TMP DP  RH WIND       PRES   REMARKS
ALBERTVILLE    CLEAR     27  23  86 CALM      30.50S
FORT PAYNE     CLEAR     21  18  86 CALM      30.52R
SCOTTSBORO AP  CLEAR     21  19  93 CALM      30.55S
SCOTTSBORO HCN   N/A     21 N/A N/A MISG        N/A
VALLEY HEAD      N/A     19 N/A N/A MISG        N/A
$$

TNZ076-096-097-101000-
SOUTHEASTERN MIDDLE TENNESSEE

CITY           SKY/WX    TMP DP  RH WIND       PRES   REMARKS
TULLAHOMA      CLEAR     16  10  79 CALM      30.53R
WINCHESTER     CLEAR     16  16 100 CALM      30.53F
$$

...SURROUNDING SITES...

CITY           SKY/WX    TMP DP  RH WIND       PRES   REMARKS
ATLANTA        CLEAR     28  18  66 NW7       30.46S WCI  21
ANNISTON       CLEAR     22  18  85 CALM      30.53S
BIRMINGHAM     CLEAR     25  21  85 CALM      30.55S
CHATTANOOGA    CLEAR     25  17  72 CALM      30.54F
CORINTH        FAIR      21  18  86 CALM      30.56F
DALTON         CLEAR     27  19  74 N6        30.52F WCI  20
GADSDEN        CLEAR     22  19  89 CALM      30.55R
GOLDEN TRNGL   CLEAR     23  18  80 CALM      30.52S
HALEYVILLE     FAIR      23  19  85 CALM      30.54F
JACKSON TN     CLEAR     19  16  88 CALM      30.59R
MEMPHIS        CLEAR     26  18  71 E5        30.57F WCI  20
NASHVILLE      CLEAR     23  15  71 CALM      30.58F
OXFORD MS      FAIR      19  18  93 CALM      30.58F
ROME           CLEAR     27  17  66 NW6       30.52S WCI  20
SAVANNAH       CLEAR     19  18  93 CALM      30.56F
TUPELO         CLEAR     23  17  78 N5        30.57F WCI  17
TUSCALOOSA     CLEAR     27  20  75 N6        30.57S WCI  20
$$

...GULF COAST WEATHER...

CITY           SKY/WX    TMP DP  RH WIND       PRES   REMARKS
GULFPORT       CLEAR     35  22  58 NE7       30.51F WCI  29
PASCAGOULA     PTCLDY    30  22  72 N6        30.52F WCI  24
MOBILE         CLEAR     32  21  64 N8        30.52S WCI  25
GULF SHORES    SUNNY     33  23  66 N6        30.51S WCI  27
PENSACOLA      CLEAR     36  21  54 N9        30.50S WCI  29
DESTIN         CLEAR     40  24  53 NE10      30.49R WCI  33
PANAMA CITY    CLEAR     38  24  58 NE13      30.46S WCI  30
APPALACHICOLA  CLEAR     38  23  55 NE9       30.44S WCI  31
$$




USA.gov is the U.S. government's official web portal to all federal, state and local government web resources and services.